Regional Weather Roundup
Issued by NWS

Home | Current Version | Previous Version | Graphics & Text | Print | Product List | Glossary On
Versions: 1 2 3 4 5 6 7 8 9 10 11 12 13 14 15 16 17 18 19 20 21 22 23 24 25 26 27 28 29 30 31 32 33 34 35 36 37 38 39 40 41 42 43 44 45 46 47 48 49 50
000
ASUS43 KLOT 261210
RWRIL

ILLINOIS REGIONAL WEATHER ROUNDUP
NATIONAL WEATHER SERVICE CHICAGO/ROMEOVILLE IL
600 AM CST FRI DEC 26 2014

NOTE: "FAIR" INDICATES FEW OR NO CLOUDS BELOW 12,000 FEET WITH NO
SIGNIFICANT WEATHER AND/OR OBSTRUCTIONS TO VISIBILITY.

* THESE STATIONS ARE NOT UNDER NWS QUALITY CONTROL. THEY ALSO MAY NOT
  REPORT WEATHER SUCH AS PRECIPITATION OR FOG.

ILZ001-002-007-009-015-016-024-261300-
NORTHWEST ILLINOIS

CITY           SKY/WX    TMP DP  RH WIND       PRES   REMARKS
MOLINE         PTCLDY    41  33  73 S16G24    29.92R
6HR MIN TEMP:  41; 6HR MAX TEMP:  43;

STERLING*      PTCLDY    39  34  81 SW3       29.95R
SAVANNA*       PTCLDY    36  33  86 S8        29.93R WCI  30
$$

ILZ003-004-008-010-011-017-018-261300-
NORTH CENTRAL ILLINOIS

CITY           SKY/WX    TMP DP  RH WIND       PRES   REMARKS
ROCKFORD       MOCLDY    36  33  89 S8        29.97S WCI  30
6HR MIN TEMP:  36; 6HR MAX TEMP:  38;

FREEPORT*      PTCLDY    36  34  90 S12       29.95R WCI  28
ROCHELLE*      MOCLDY    34  33  94 S6        29.97R WCI  29
DE KALB*       PTCLDY    32  31  96 S10       29.97S WCI  24
PERU*          CLEAR     37  34  88 S15       29.98R WCI  28
$$

ILZ005-006-012>014-019>023-261300-
NORTHEAST ILLINOIS

CITY           SKY/WX    TMP DP  RH WIND       PRES   REMARKS
CHICAGO-OHARE  PTCLDY    37  32  82 S9        29.98S WCI  30
6HR MIN TEMP:  36; 6HR MAX TEMP:  39;

CHICAGO-MIDWAY PTCLDY    38  33  82 S9        30.00S WCI  31
6HR MIN TEMP:  38; 6HR MAX TEMP:  41;

AURORA         PTCLDY    33  29  85 S3        29.99S
6HR MIN TEMP:  33; 6HR MAX TEMP:  37;

LANSING*       CLEAR     34  32  91 S8        30.03R WCI  27
JOLIET*        CLEAR     36  32  86 SW7       30.01S WCI  30
WAUKEGAN       MOCLDY    38  32  79 SW13      29.97R WCI  30
6HR MIN TEMP:  38; 6HR MAX TEMP:  40;

DUPAGE AIRPORT PTCLDY    33  30  88 S8        29.98S WCI  26
6HR MIN TEMP:  33; 6HR MAX TEMP:  38;

KANKAKEE*      CLEAR     37  33  87 S16G23    30.03R WCI  27
WHEELING       PTCLDY    37  32  82 S9        30.01R WCI  30
6HR MIN TEMP:  37; 6HR MAX TEMP:  39;

MORRIS*        CLEAR     37  34  90 SW9       29.99S WCI  30
ROMEOVILLE*    CLEAR     36  33  90 SW12      30.00S WCI  27
NORTHERLY ISL    N/A     38  32  79 W6          N/A  WCI  33
$$

LMZ740>746-261300-
SOUTHERN LAKE MICHIGAN

STATION/POSITION SKY/WX   TEMP    WIND        PRES    VSBY  WAVE
                          AIR SEA DIR/SP/G                  HT/PER
                          (F)     (DEG/KT/KT) (MB)    (MI)  (FT/S)
WAUKEGAN HARBOR            39                   N/A
HARRISON CRIB              38     200/ 23/ 26   N/A
BURNHAM HARBOR             38     190/  7/ 13   N/A
CALUMET HARBOR             37     190/  8/ 11 1015.1S
MICHIGAN CITY              37     160/ 15/ 19   N/A
$$

ILZ025>027-034>036-040-047-049-050-058-095>099-261300-
WEST-CENTRAL ILLINOIS

CITY           SKY/WX    TMP DP  RH WIND       PRES   REMARKS
QUINCY         MOCLDY    42  34  73 S10       29.96R
GALESBURG*     PTCLDY    39  35  86 S14       29.95R WCI  30
MACOMB*        MOCLDY    39  35  84 S16       29.98R WCI  31
JACKSONVILLE*  CLEAR     42  36  80 S15G22    30.00S
PITTSFIELD*    PTCLDY    39  35  83 S7        30.00S WCI  34
$$

ILZ028>032-037-038-041>044-048-051>054-059>061-261300-
CENTRAL ILLINOIS

CITY           SKY/WX    TMP DP  RH WIND       PRES   REMARKS
PONTIAC        CLEAR     38  35  87 S15       30.01R WCI  30
BLOOMINGTON    CLEAR     37  34  89 S15       30.03R WCI  28
DECATUR        CLEAR     37  33  85 S14       30.06R WCI  28
PEORIA         PTCLDY    37  32  82 S12       30.00R WCI  29
6HR MIN TEMP:  37; 6HR MAX TEMP:  40;

LACON*         PTCLDY    39  33  80 S12       29.98R WCI  32
LINCOLN*       CLEAR     38  34  85 S14       30.03R WCI  30
SPRINGFIELD    CLEAR     40  34  79 S15       30.03R
6HR MIN TEMP:  40; 6HR MAX TEMP:  42;

TAYLORVILLE    CLEAR     36  32  87 S13       30.05S WCI  27
$$

ILZ033-039-045-046-055>057-062-063-261300-
EAST-CENTRAL ILLINOIS

CITY           SKY/WX    TMP DP  RH WIND       PRES   REMARKS
CHAMPAIGN      CLEAR     36  32  85 S15       30.06S WCI  27
DANVILLE*      CLEAR     37  33  86 S15       30.05S WCI  28
RANTOUL*       CLEAR     37  34  87 S10       30.06S WCI  30
MATTOON        CLEAR     37  34  89 S13       30.09R WCI  29
PARIS*         CLEAR     38  35  89 S17       30.11R WCI  28
$$

ILZ079-100>102-261300-
SOUTHWEST ILLINOIS

CITY           SKY/WX    TMP DP  RH WIND       PRES   REMARKS
BELLEVILLE     CLEAR     39  36  91 S12       30.08S WCI  31
CAHOKIA*       CLEAR     39  34  82 S7        30.07S WCI  34
SPARTA*        CLEAR     40  34  79 S13G21    30.11S
$$

ILZ064>066-069>071-074>076-080>082-084>086-088>090-092>094-261300-
SOUTH-CENTRAL ILLINOIS

CITY           SKY/WX    TMP DP  RH WIND       PRES   REMARKS
CARBONDALE     CLEAR     37  32  82 S7        30.15R WCI  32
6HR MIN TEMP:  36; 6HR MAX TEMP:  44;

CAIRO*         CLEAR     42  36  80 S8        30.18R
EFFINGHAM*     CLEAR     37  32  81 SE6       30.13S WCI  32
MARION         CLEAR     39  36  87 S9        30.16S WCI  33
MT. VERNON     CLEAR     39  32  75 S9        30.15R WCI  33
CENTRALIA*     CLEAR     38  33  80 S13       30.11S WCI  31
SALEM*         CLEAR     42  35  75 S13       30.12S
METROPOLIS*    CLEAR     39  36  87 S6        30.19R
$$

ILZ067-068-072-073-078-083-087-091-261300-
SOUTHEAST ILLINOIS

CITY           SKY/WX    TMP DP  RH WIND       PRES   REMARKS
LAWRENCEVILLE  CLEAR     34  32  92 S8        30.17R WCI  27
FLORA*         CLEAR     36  33  90 S7        30.14S WCI  30
FAIRFIELD*     CLEAR     37  33  87 S6        30.15R WCI  32
HARRISBURG*    CLEAR     37  34  89 CALM      30.19R
ROBINSON*      CLEAR     35  33  91 S8        30.16R WCI  29
CARMI*         CLEAR     33  33 100 SE5       30.17S WCI  28
$$

ABBREVIATIONS USED IN REMARKS
   TC - TEMPERATURE IN CELSIUS
  WCI - WIND CHILL INDEX
   HX - HEAT INDEX
  VSB - VISIBILITY
$$



USA.gov is the U.S. government's official web portal to all federal, state and local government web resources and services.